[[{"header":{"parameterUnit":"m.s-1","parameterCategory":1,"la1":30.2991,"la2":30.254,"lo1":-89.0895,"lo2":-89.0444,"dy":0.0017,"dx":0.0017,"nx":28,"ny":28,"refTime":"2023-04-12T21:00:00:Z","depth":0,"parameterNumber":2,"parameterNumberName":"U-component_of_WINDS"},"data":[0,0,0,0,0,0,0,0,0,0,0,0,0,0,0,0,0,0,0,0,0,0,0,0,0,0,0,0,0,0,0,0,0,0,0,0,0,0,0,0,0,0,0,0,0,0,0,0,0,0,0,0,0,0,0,0,0,0,-1.3032,-1.3027,0,-1.2546,-1.254,-1.2535,-1.2189,-1.2186,-1.2184,-1.2181,-1.1688,-1.1678,-1.1667,0,0,0,0,0,0,0,0,0,0,0,0,0,-1.3663,-1.3653,-1.3033,-1.3026,-1.302,-1.2547,-1.254,-1.2534,-1.219,-1.2186,-1.2183,-1.218,-1.1691,-1.1679,-1.1666,0,0,0,0,0,0,0,0,0,0,0,0,0,-1.3305,-1.365,-1.3034,-1.2792,-1.2765,-1.2548,-1.254,-1.2532,-1.219,-1.2186,-1.2182,-1.2178,-1.1695,-1.168,-1.1665,-1.1651,0,0,-1.1616,-1.1609,0,0,0,0,0,0,0,0,-1.3325,-1.3282,-1.2833,-1.2808,-1.2778,-1.2424,-1.2581,-1.2237,-1.2191,-1.2409,-1.2181,-1.2176,-1.1936,-1.1901,-1.1819,-1.1628,-1.1607,-1.1615,-1.1605,-1.1599,-1.1594,0,0,0,0,0,0,0,-1.3351,-1.3301,-1.284,-1.2827,-1.2793,-1.2707,-1.2652,-1.2514,-1.2202,-1.239,-1.2363,-1.231,-1.192,-1.1835,-1.1805,-1.1599,-1.1615,-1.1601,-1.1592,-1.1585,-1.1368,-1.1371,0,0,0,0,0,0,-1.3413,-1.3324,-1.2855,-1.2825,-1.3047,-1.2699,-1.2637,-1.2542,-1.2203,-1.2147,-1.2314,-1.2296,-1.1864,-1.1823,-1.1786,-1.1745,-1.1599,-1.1584,-1.1575,-1.1364,-1.1369,-1.1373,0,0,0,0,0,0,-1.3428,-1.3375,-1.2875,-1.3067,-1.2997,-1.2693,-1.2589,-1.2534,-1.2448,-1.2146,-1.2089,-1.2284,-1.1859,-1.1808,-1.1686,-1.1723,-1.1577,-1.1562,-1.136,-1.1366,-1.1371,-1.1666,0,0,0,0,0,0,-1.3448,-1.3382,-1.3375,-1.3069,-1.2988,-1.2784,-1.2591,-1.2528,-1.2421,-1.2393,-1.2102,-1.205,-1.1852,-1.1711,-1.167,-1.1699,-1.155,-1.1355,-1.1362,-1.1369,-1.1652,-1.1681,-1.1707,0,0,0,0,0,-1.3471,-1.3479,-1.3376,-1.3321,-1.2972,-1.2787,-1.274,-1.2511,-1.2426,-1.2415,-1.222,-1.2059,-1.1726,-1.1702,-1.1652,-1.1677,-1.1352,-1.136,-1.1368,-1.164,-1.1676,-1.1706,0,0,0,0,0,0,-1.3799,-1.3435,-1.3317,-1.3226,-1.304,-1.2729,-1.2709,-1.2557,-1.2392,-1.2373,-1.2095,-1.2032,-1.1939,-1.1794,-1.1774,-1.1644,-1.1518,-1.1518,-1.1742,-1.1773,-1.18,-1.1838,-1.1537,0,0,0,0,0,-1.3861,-1.374,-1.3428,-1.3378,-1.3291,-1.3017,-1.2928,-1.2766,-1.2563,-1.2483,-1.2278,-1.2089,-1.1939,-1.1848,-1.1695,-1.1628,-1.1559,-1.1621,-1.1648,-1.1672,-1.1675,-1.1626,-1.1649,-1.14,-1.14,-1.14,0,0,-1.3988,-1.3773,-1.3715,-1.3439,-1.3276,-1.3157,-1.2953,-1.2837,-1.2746,-1.2465,-1.2336,-1.218,-1.1949,-1.1854,-1.1802,-1.1731,-1.1728,-1.1682,-1.1704,-1.1693,-1.1637,-1.1661,-1.1682,-1.1406,-1.1405,-1.1404,0,0,-1.4157,-1.3984,-1.3921,-1.376,-1.3514,-1.3331,-1.3317,-1.3027,-1.2911,-1.2777,-1.2562,-1.245,-1.2201,-1.2043,-1.1932,-1.2036,-1.1882,-1.1994,-1.2138,-1.2093,-1.2113,-1.2129,-1.2165,-1.2181,-1.1997,-1.1998,-1.1998,0,-1.4347,-1.4159,-1.3909,-1.3804,-1.3688,-1.3424,-1.3359,-1.3215,-1.2934,-1.286,-1.2783,-1.2461,-1.2287,-1.2151,-1.2176,-1.2094,-1.2067,-1.2027,-1.213,-1.2143,-1.2154,-1.2186,-1.2201,-1.2013,-1.2011,-1.201,-1.2008,0,-1.4402,-1.4275,-1.4254,-1.3985,-1.3866,-1.3782,-1.3519,-1.3429,-1.3276,-1.3101,-1.2965,-1.2746,-1.2542,-1.2497,-1.2349,-1.2338,-1.2301,-1.2182,-1.2051,-1.2198,-1.2223,-1.2233,-1.2035,-1.2029,-1.2025,-1.2021,0,0,-1.4771,-1.436,-1.4357,-1.423,-1.3936,-1.3833,-1.3735,-1.3533,-1.346,-1.3273,-1.3184,-1.2976,-1.2861,-1.2734,-1.2564,-1.2526,-1.262,-1.2408,-1.2399,-1.2456,-1.2593,-1.2686,-1.2704,-1.2514,-1.2516,-1.2517,-1.2612,0,-1.4896,-1.4705,-1.4475,-1.4364,-1.4241,-1.3986,-1.39,-1.3711,-1.3544,-1.3415,-1.3229,-1.3086,-1.2946,-1.2867,-1.2817,-1.262,-1.2644,-1.2609,-1.2429,-1.2426,-1.2497,-1.2717,-1.2816,-1.2917,-1.262,-1.2622,-1.2623,0,-1.5018,-1.4841,-1.4717,-1.4429,-1.4369,-1.4297,-1.409,-1.3971,-1.375,-1.363,-1.3486,-1.3302,-1.3184,-1.3067,-1.29,-1.2882,-1.2794,-1.2685,-1.2683,-1.2659,-1.2535,-1.27,-1.2943,-1.296,-1.2636,-1.2635,-1.2634,0,-1.5299,-1.5029,-1.4918,-1.4817,-1.448,-1.4434,-1.4292,-1.4065,-1.3957,-1.3777,-1.3703,-1.3514,-1.341,-1.3267,-1.3036,-1.2972,-1.2894,-1.2758,-1.2792,-1.2798,-1.2789,-1.2793,-1.3024,-1.2732,-1.2732,-1.2731,-1.2731,0,-1.5464,-1.5398,-1.5039,-1.4973,-1.4889,-1.4624,-1.455,-1.4384,-1.4184,-1.4079,-1.3847,-1.3754,-1.3454,-1.3325,-1.3143,-1.3032,-1.2987,-1.2887,-1.284,-1.2909,-1.2922,-1.2849,-1.2836,-1.2735,-1.2734,-1.2733,-1.2733,0,-1.5766,-1.5523,-1.5385,-1.5075,-1.4995,-1.4948,-1.4682,-1.4606,-1.4422,-1.4292,-1.4246,-1.3959,-1.3794,-1.3549,-1.3312,-1.3189,-1.3107,-1.303,-1.3183,-1.3154,-1.3202,-1.3201,-1.3394,-1.3406,-1.3109,-1.3112,-1.3115,0,-1.5889,-1.5831,-1.5513,-1.5424,-1.5289,-1.5151,-1.5037,-1.4773,-1.4665,-1.4405,-1.436,-1.4177,-1.4016,-1.3765,-1.3536,-1.3352,-1.3268,-1.3348,-1.324,-1.3309,-1.3269,-1.3276,-1.3268,-1.3376,-1.338,-1.3384,-1.3387,0,-1.6131,-1.6012,-1.5858,-1.566,-1.5531,-1.5363,-1.5184,-1.5125,-1.4821,-1.4711,-1.4538,-1.4414,-1.4168,-1.3989,-1.3773,-1.3624,-1.3456,-1.3422,-1.342,-1.3491,-1.3582,-1.3533,-1.3254,-1.342,-1.3417,-1.3414,-1.3413,-1.3411,-1.6346,-1.6282,-1.6047,-1.5881,-1.5717,-1.5554,-1.5466,-1.5269,-1.512,-1.4899,-1.4751,-1.4587,-1.4361,-1.4052,-1.3913,-1.3779,-1.3708,-1.3706,-1.3705,-1.3709,-1.3733,-1.3602,-1.3739,-1.3738,-1.3737,-1.3736,-1.3735,0,-1.6577,-1.6411,-1.6261,-1.6016,-1.5885,-1.5733,-1.5525,-1.5427,-1.5284,-1.5087,-1.4932,-1.4733,-1.4556,-1.431,-1.4115,-1.4056,-1.3973,-1.4014,-1.4016,-1.3985,-1.3809,-1.383,-1.4084,-1.4084,-1.4084,-1.4084,-1.4084,-1.4084,-1.6682,-1.6564,-1.6417,-1.6215,-1.6048,-1.5884,-1.5778,-1.5625,-1.5466,-1.5253,-1.5104,-1.4943,-1.4726,-1.4512,-1.4343,-1.4275,-1.4214,-1.4279,-1.4188,-1.4029,-1.3998,-1.3967,-1.3986,-1.4268,-1.4268,-1.4374,-1.4375,-1.4376]},{"header":{"parameterUnit":"m.s-1","parameterCategory":1,"la1":30.2991,"la2":30.254,"lo1":-89.0895,"lo2":-89.0444,"dy":0.0017,"dx":0.0017,"nx":28,"ny":28,"refTime":"2023-04-12T21:00:00:Z","depth":0,"parameterNumber":3,"parameterNumberName":"V-component_of_WINDS"},"data":[0,0,0,0,0,0,0,0,0,0,0,0,0,0,0,0,0,0,0,0,0,0,0,0,0,0,0,0,0,0,0,0,0,0,0,0,0,0,0,0,0,0,0,0,0,0,0,0,0,0,0,0,0,0,0,0,0,0,-3.0307,-3.0309,0,-3.0514,-3.0517,-3.0519,-3.0498,-3.0495,-3.0491,-3.0488,-3.0706,-3.0715,-3.0724,0,0,0,0,0,0,0,0,0,0,0,0,0,-2.9898,-2.9906,-3.0307,-3.031,-3.0312,-3.0514,-3.0517,-3.052,-3.0498,-3.0494,-3.0491,-3.0487,-3.0704,-3.0714,-3.0725,0,0,0,0,0,0,0,0,0,0,0,0,0,-3.0088,-2.9908,-3.0306,-3.0326,-3.0329,-3.0513,-3.0517,-3.052,-3.0499,-3.0494,-3.0489,-3.0485,-3.07,-3.0713,-3.0726,-3.0906,0,0,-3.0767,-3.0772,0,0,0,0,0,0,0,0,-3.0077,-3.0103,-3.032,-3.0325,-3.0329,-3.0475,-3.0453,-3.065,-3.0501,-3.0435,-3.0488,-3.0483,-3.0634,-3.0652,-3.0702,-3.0916,-3.0925,-3.0768,-3.0776,-3.0782,-3.0785,0,0,0,0,0,0,0,-3.0064,-3.0094,-3.0389,-3.0324,-3.0329,-3.0326,-3.0347,-3.049,-3.056,-3.044,-3.0439,-3.0464,-3.0635,-3.0689,-3.0707,-3.0929,-3.0767,-3.0779,-3.0787,-3.0793,-3.1302,-3.1308,0,0,0,0,0,0,-3.0045,-3.0083,-3.0383,-3.0395,-3.0188,-3.0337,-3.0361,-3.0433,-3.0558,-3.0572,-3.0468,-3.0462,-3.0669,-3.0692,-3.0715,-3.0935,-3.0781,-3.0794,-3.0802,-3.1297,-3.1304,-3.131,0,0,0,0,0,0,-3.0037,-3.0072,-3.0374,-3.0239,-3.0277,-3.0349,-3.0431,-3.044,-3.0494,-3.0578,-3.0591,-3.051,-3.0666,-3.0696,-3.0858,-3.0942,-3.08,-3.0812,-3.129,-3.1299,-3.1307,-3.1377,0,0,0,0,0,0,-3.0025,-3.0069,-3.0137,-3.0241,-3.0284,-3.0513,-3.0436,-3.0448,-3.0516,-3.0511,-3.0621,-3.0635,-3.0665,-3.0839,-3.0872,-3.0958,-3.0822,-3.1283,-3.1294,-3.1304,-3.1367,-3.1386,-3.1403,0,0,0,0,0,-3.0011,-3.015,-3.0141,-3.0177,-3.0371,-3.0518,-3.0543,-3.0573,-3.0523,-3.0593,-3.0647,-3.0632,-3.0927,-3.0856,-3.0892,-3.0984,-3.1278,-3.1291,-3.1303,-3.1359,-3.1383,-3.1402,0,0,0,0,0,0,-3.0057,-3.0164,-3.0155,-3.0331,-3.0416,-3.0514,-3.0603,-3.0596,-3.0698,-3.0689,-3.0723,-3.0748,-3.0912,-3.0964,-3.0882,-3.1165,-3.1096,-3.1117,-3.1126,-3.1149,-3.1166,-3.1152,-3.0833,0,0,0,0,0,-3.0087,-3.0196,-3.0284,-3.0431,-3.0474,-3.0531,-3.0597,-3.0612,-3.0701,-3.0737,-3.0803,-3.0893,-3.1005,-3.108,-3.1188,-3.1373,-3.1399,-3.1454,-3.1472,-3.1486,-3.1505,-3.1609,-3.1636,-3.1351,-3.1351,-3.135,0,0,-3.0152,-3.0224,-3.0291,-3.0442,-3.0509,-3.0624,-3.0562,-3.0685,-3.0771,-3.0757,-3.0914,-3.0966,-3.1067,-3.1242,-3.1323,-3.1291,-3.1589,-3.1502,-3.1513,-3.1524,-3.1625,-3.1652,-3.1675,-3.1359,-3.1358,-3.1356,0,0,-3.0329,-3.0393,-3.0523,-3.0591,-3.0692,-3.0729,-3.076,-3.086,-3.0893,-3.1051,-3.1044,-3.1146,-3.134,-3.1413,-3.1476,-3.1679,-3.167,-3.1713,-3.1807,-3.1908,-3.1931,-3.1951,-3.2027,-3.2053,-3.173,-3.1731,-3.1731,0,-3.0398,-3.0567,-3.0592,-3.0716,-3.0784,-3.0773,-3.0907,-3.0972,-3.1105,-3.1153,-3.1114,-3.1357,-3.1424,-3.1618,-3.1667,-3.1717,-3.1756,-3.1702,-3.1925,-3.1946,-3.1965,-3.2037,-3.2065,-3.1735,-3.1735,-3.1734,-3.1734,0,-3.0648,-3.0766,-3.0859,-3.0985,-3.1063,-3.1192,-3.1237,-3.1314,-3.1321,-3.1363,-3.1525,-3.1605,-3.173,-3.1776,-3.1786,-3.1972,-3.1949,-3.1917,-3.1849,-3.1997,-3.2065,-3.2093,-3.1743,-3.1741,-3.1739,-3.1738,0,0,-3.0863,-3.0999,-3.1033,-3.1091,-3.1201,-3.1294,-3.1422,-3.1543,-3.1609,-3.17,-3.181,-3.1973,-3.1945,-3.2016,-3.2033,-3.2121,-3.228,-3.2079,-3.2082,-3.2117,-3.2493,-3.2519,-3.2551,-3.2273,-3.2278,-3.2282,-3.2486,0,-3.1053,-3.1278,-3.1303,-3.1506,-3.1616,-3.1607,-3.1719,-3.18,-3.1842,-3.1944,-3.199,-3.2107,-3.2058,-3.2101,-3.2188,-3.2242,-3.2357,-3.2228,-3.238,-3.2385,-3.2358,-3.2586,-3.2614,-3.2802,-3.2513,-3.2517,-3.252,0,-3.1306,-3.1402,-3.1615,-3.171,-3.1757,-3.1858,-3.1971,-3.2066,-3.2158,-3.2183,-3.2261,-3.2267,-3.2402,-3.2325,-3.2513,-3.2424,-3.2488,-3.2524,-3.2532,-3.2551,-3.2464,-3.2614,-3.2863,-3.2893,-3.2562,-3.2559,-3.2556,0,-3.1445,-3.1628,-3.1779,-3.1828,-3.1942,-3.2013,-3.2065,-3.2151,-3.2222,-3.2321,-3.2368,-3.2482,-3.2545,-3.2634,-3.2671,-3.2611,-3.2858,-3.2784,-3.2885,-3.2885,-3.2941,-3.2938,-3.3207,-3.2975,-3.2975,-3.2974,-3.2974,0,-3.1657,-3.1788,-3.1843,-3.1937,-3.2084,-3.2112,-3.2257,-3.2306,-3.2383,-3.2488,-3.2486,-3.2584,-3.2625,-3.2731,-3.2761,-3.2914,-3.2941,-3.2967,-3.2975,-3.297,-3.2967,-3.3015,-3.3004,-3.2982,-3.298,-3.2979,-3.2978,0,-3.1839,-3.1881,-3.2046,-3.2139,-3.2166,-3.227,-3.2352,-3.2444,-3.2482,-3.2615,-3.2648,-3.2711,-3.2836,-3.288,-3.3031,-3.3051,-3.323,-3.3224,-3.3199,-3.3201,-3.3302,-3.3293,-3.3614,-3.3659,-3.3394,-3.3397,-3.3399,0,-3.1973,-3.2074,-3.2178,-3.2246,-3.23,-3.241,-3.2482,-3.2513,-3.2588,-3.27,-3.2779,-3.2902,-3.3002,-3.3202,-3.3263,-3.3379,-3.3379,-3.3483,-3.3397,-3.339,-3.3385,-3.338,-3.3392,-3.3501,-3.3504,-3.3506,-3.3508,0,-3.2209,-3.2224,-3.2326,-3.2437,-3.2522,-3.261,-3.2697,-3.2753,-3.2797,-3.2883,-3.3008,-3.3086,-3.324,-3.3363,-3.3482,-3.3537,-3.3532,-3.3533,-3.3564,-3.3563,-3.3545,-3.356,-3.3247,-3.3527,-3.3525,-3.3524,-3.3523,-3.3522,-3.2374,-3.2463,-3.255,-3.2665,-3.2732,-3.2812,-3.2903,-3.2953,-3.3058,-3.3185,-3.3196,-3.3333,-3.3423,-3.3582,-3.3642,-3.3751,-3.3723,-3.3766,-3.3778,-3.3789,-3.3799,-3.3524,-3.3773,-3.3772,-3.3772,-3.3771,-3.3771,0,-3.2612,-3.2666,-3.2771,-3.2891,-3.2981,-3.2963,-3.3058,-3.3136,-3.3255,-3.3339,-3.3437,-3.3583,-3.3702,-3.3772,-3.3892,-3.3966,-3.3967,-3.3997,-3.3994,-3.4008,-3.3815,-3.3778,-3.3995,-3.3995,-3.3995,-3.3995,-3.3995,-3.3995,-3.2746,-3.2897,-3.2923,-3.3108,-3.3163,-3.3295,-3.3351,-3.3426,-3.3492,-3.3655,-3.3753,-3.3796,-3.3876,-3.4001,-3.4111,-3.4128,-3.4175,-3.4209,-3.4224,-3.4044,-3.4021,-3.3999,-3.3965,-3.4217,-3.4218,-3.4409,-3.441,-3.4412]}]]